Location: Gälforsberget
(66.6500°N, 22.4167°E)
Time: 14:29:17
(UTC+00:00)

SL-16 R/B - Pass Details

Date: 11 April 2026
Orbit: 985 x 1006 km, 99.8° (Epoch: 17 May)

Event Time Altitude Azimuth Distance (km) Brightness Sun altitude
Rises 22:54:15 0° 98° (E) 3,739 5.5 -14.6°
Reaches altitude 10° 22:56:57 10° 90° (E) 2,791 5.0 -14.6°
Maximum altitude 23:02:26 33° 29° (NNE) 1,630 4.4 -14.5°
Drops below altitude 10° 23:07:55 10° 328° (NNW) 2,798 5.6 -14.5°
Sets 23:10:38 0° 320° (NW) 3,748 6.2 -14.4°
